Jackson, TN

10:40 PM CDT on May 24, 2018 (GMT -0500)
McKellar-Sipes Regional

Weather History for KMKL - October, 2012

Change the Weather History Date:

Friday, October 5, 2012

  Actual Average Record
Temperature  
Mean Temperature 64 °F 64 °F  
Max Temperature 81 °F 77 °F 93 °F (1951)
Min Temperature 46 °F 51 °F 33 °F (1999)
Degree Days  
Heating Degree Days 1 4  
Month to date heating degree days 15 16  
Since 1 July heating degree days 45 42  
Cooling Degree Days 0 3  
Month to date cooling degree days 2 15  
Year to date cooling degree days 1902 1658  
Growing Degree Days 16 (Base 50)    
Moisture  
Dew Point 58 °F    
Average Humidity 74    
Maximum Humidity 97    
Minimum Humidity 51    
Precipitation  
Precipitation 0.77 in 0.13 in 2.01 in (1959)
Month to date precipitation 1.63 0.61  
Year to date precipitation 32.73 39.86  
Snow  
Snow 0.00 in - - ()
Month to date snowfall 0.0  
Snow Depth 0.00 in    
Sea Level Pressure  
Sea Level Pressure 30.08 in    
Wind  
Wind Speed 8 mph (SW)    
Max Wind Speed 25 mph    
Max Gust Speed 30 mph    
Visibility 8 miles    
Events Rain , Thunderstorm    
T = Trace of Precipitation, MM = Missing Value Source: NWS Daily Summary

Daily Weather History Graph

Daily Weather History Graph

Search for Another Location

Airport or City:

Astronomy

Oct. 05, 2012 Rise Set
Actual Time 6:54 AM CDT 6:33 PM CDT
Civil Twilight 6:28 AM CDT 6:58 PM CDT
Nautical Twilight 5:59 AM CDT 7:28 PM CDT
Astronomical Twilight 5:29 AM CDT 7:57 PM CDT
Moon 10:05 PM CDT (10/5) 11:52 AM CDT (10/5)
Length of Visible Light 12h 29m
Length of Day
11h 38m
Waning Gibbous, 74% of the Moon is Illuminated
Oct 5
Waning Gibbous
Oct 8
Last Quarter
Oct 15
New
Oct 21
First Quarter
Oct 29
Full

Hourly Weather History & Observations

Time (CDT) Temp. Heat Index Dew Point Humidity Pressure Visibility Wind Dir Wind Speed Gust Speed Precip Events Conditions
12:53 AM 57.9 °F - 55.9 °F 93% 30.18 in 6.0 mi Calm Calm - N/A   Clear
1:53 AM 57.9 °F - 55.9 °F 93% 30.17 in 8.0 mi South 3.5 mph - N/A   Clear
3:53 AM 61.0 °F - 59.0 °F 93% 30.15 in 10.0 mi South 4.6 mph - N/A   Clear
4:53 AM 57.9 °F - 55.9 °F 93% 30.15 in 7.0 mi Calm Calm - N/A   Clear
5:53 AM 59.0 °F - 55.9 °F 90% 30.15 in 9.0 mi South 4.6 mph - N/A   Clear
6:53 AM 61.0 °F - 57.9 °F 90% 30.14 in 10.0 mi South 4.6 mph - 0.01 in   Clear
7:53 AM 64.0 °F - 60.1 °F 87% 30.14 in 10.0 mi South 5.8 mph - N/A   Clear
8:53 AM 69.1 °F - 62.1 °F 78% 30.14 in 10.0 mi SSW 8.1 mph - N/A   Clear
9:53 AM 73.0 °F - 62.1 °F 68% 30.14 in 10.0 mi SSW 6.9 mph - N/A   Clear
10:53 AM 77.0 °F - 62.1 °F 60% 30.12 in 10.0 mi SSW 9.2 mph - N/A   Clear
12:53 PM 81.0 °F 81.7 °F 61.0 °F 50% 30.07 in 10.0 mi SSW 13.8 mph 18.4 mph N/A   Scattered Clouds
1:53 PM 80.1 °F 81.1 °F 61.0 °F 52% 30.05 in 10.0 mi SSW 11.5 mph - N/A   Mostly Cloudy
2:53 PM 80.1 °F 80.9 °F 60.1 °F 50% 30.01 in 10.0 mi SW 11.5 mph - N/A   Partly Cloudy
3:53 PM 79.0 °F - 61.0 °F 54% 30.00 in 10.0 mi SW 12.7 mph - N/A   Clear
4:53 PM 75.9 °F - 63.0 °F 64% 29.98 in 10.0 mi South 4.6 mph - N/A   Clear
5:53 PM 73.0 °F - 64.0 °F 73% 29.98 in 10.0 mi SW 3.5 mph - N/A   Clear
6:53 PM 71.1 °F - 64.0 °F 78% 29.95 in 10.0 mi South 4.6 mph - N/A   Partly Cloudy
7:53 PM 71.1 °F - 64.0 °F 78% 29.99 in 10.0 mi Calm Calm - N/A   Overcast
8:21 PM 62.6 °F - 59.0 °F 88% 30.03 in 10.0 mi North 19.6 mph - 0.00 in Rain , Thunderstorm Light Thunderstorms and Rain
8:42 PM 59.0 °F - 57.2 °F 94% 30.06 in 4.0 mi North 17.3 mph - 0.08 in Rain , Thunderstorm Heavy Rain
8:49 PM 57.2 °F - 55.4 °F 94% 30.06 in 2.5 mi North 15.0 mph 21.9 mph 0.20 in Rain , Thunderstorm Heavy Thunderstorms and Rain
8:53 PM 57.9 °F - 55.9 °F 93% 30.04 in 2.0 mi North 13.8 mph 21.9 mph 0.26 in Rain , Thunderstorm Heavy Thunderstorms and Rain
9:02 PM 57.2 °F - 55.4 °F 94% 30.05 in 5.0 mi North 11.5 mph - 0.02 in Rain , Thunderstorm Light Thunderstorms and Rain
9:15 PM 57.2 °F - 55.4 °F 94% 30.07 in 10.0 mi North 15.0 mph - 0.02 in Rain Light Rain
9:53 PM 53.1 °F - 51.1 °F 93% 30.07 in 10.0 mi North 16.1 mph - 0.20 in Rain Light Rain
10:53 PM 51.1 °F - 48.9 °F 92% 30.08 in 10.0 mi NNW 13.8 mph - 0.01 in Rain Light Rain
11:53 PM 48.9 °F - 46.9 °F 93% 30.11 in 7.0 mi North 13.8 mph 23.0 mph 0.02 in Rain Rain